Regional Weather Roundup
Issued by NWS

Home | Current Version | Previous Version | Graphics & Text | Print | Product List | Glossary On
Versions: 1 2 3 4 5 6 7 8 9 10 11 12 13 14 15 16 17 18 19 20 21 22 23 24 25 26 27 28 29 30 31 32 33 34 35 36 37 38 39 40 41 42 43 44 45 46 47 48 49 50
000
ASUS43 KBIS 181159
RWRND

NORTH DAKOTA REGIONAL WEATHER ROUNDUP
NATIONAL WEATHER SERVICE BISMARCK ND
700 AM CDT FRI APR 18 2014

NOTE: "FAIR" INDICATES FEW OR NO CLOUDS BELOW 12,000 FEET WITH NO
SIGNIFICANT WEATHER AND/OR OBSTRUCTIONS TO VISIBILITY.


NDZ001>003-009>011-017-181300-
NORTHWEST NORTH DAKOTA

CITY           SKY/WX    TMP DP  RH WIND       PRES   REMARKS
WILLISTON      CLOUDY    37  24  59 SE10      29.90F
6HR MIN TEMP:  37; 6HR MAX TEMP:  40; 6HR PCP: TRACE;

MINOT          MOCLDY    30  21  69 E14       30.04F WCI  19
$$

NDZ018>021-031>035-040>046-181300-
SOUTHWEST NORTH DAKOTA

CITY           SKY/WX    TMP DP  RH WIND       PRES   REMARKS
BISMARCK       CLOUDY    35  22  58 E16       30.05F
6HR MIN TEMP:  33; 6HR MAX TEMP:  35;

GARRISON         N/A     33  23  66 SE18G29   30.01F
6HR MIN TEMP:  31; 6HR MAX TEMP:  35;

HETTINGER ARPT CLEAR     29  23  78 E12       29.90S WCI  19
$$

NDZ004>008-012>016-024-026-027-054-181300-
NORTHEAST NORTH DAKOTA

CITY           SKY/WX    TMP DP  RH WIND       PRES   REMARKS
GRAND FORKS    PTCLDY    31  15  52 SE8       30.28S
DEVILS LAKE    MOCLDY    30  18  59 SE15      30.19S WCI  19
$$

NDZ022-023-025-028>030-036>039-047>053-181300-
SOUTHEAST NORTH DAKOTA

CITY           SKY/WX    TMP DP  RH WIND       PRES   REMARKS
FARGO          CLOUDY    35  24  64 S9        30.27S
6HR MIN TEMP:  32; 6HR MAX TEMP:  35;

$$




USA.gov is the U.S. government's official web portal to all federal, state and local government web resources and services.